📊 Raw Sensor Data
Showing records 37826 to 37850 of 84,919 total
| ID | Distance (ft) | Battery V | Battery A | Int Temp (°F) | Int Humid (%) | Ext Temp (°F) | Solar V | RSSI | SNR | Time Stamp |
|---|---|---|---|---|---|---|---|---|---|---|
| 47106 | 15.4 | 3.82 | 0 | 66 | 42 | 66 | 5.10 | -72 | 8 | 07/23/2025 08:00 AM |
| 47105 | 15.3 | 3.82 | 0 | 64 | 42 | 65 | 5.10 | -73 | 8 | 07/23/2025 07:45 AM |
| 47104 | 15.3 | 3.82 | 0 | 63 | 41 | 65 | 5.10 | -71 | 7 | 07/23/2025 07:30 AM |
| 47103 | 15.3 | 3.87 | 7 | 61 | 41 | 66 | 5.10 | -72 | 8 | 07/23/2025 07:15 AM |
| 47102 | 15.3 | 3.92 | 8 | 58 | 41 | 64 | 4.50 | -72 | 8 | 07/23/2025 07:00 AM |
| 47101 | 15.2 | 3.87 | 19 | 56 | 42 | 63 | 4.50 | -73 | 8 | 07/23/2025 06:45 AM |
| 47100 | 15.1 | 3.88 | 0 | 54 | 43 | 56 | 4.50 | -71 | 8 | 07/23/2025 06:30 AM |
| 47099 | 15.1 | 3.81 | -5 | 53 | 43 | 55 | 4.50 | -72 | 8 | 07/23/2025 06:15 AM |
| 47098 | 15.1 | 3.81 | -10 | 53 | 43 | 54 | 2.70 | -71 | 8 | 07/23/2025 06:00 AM |
| 47097 | 15.1 | 3.86 | -5 | 53 | 43 | 54 | 1.30 | -71 | 8 | 07/23/2025 05:45 AM |
| 47096 | 15.1 | 3.86 | -5 | 53 | 43 | 54 | 0.00 | -72 | 8 | 07/23/2025 05:30 AM |
| 47095 | 15.1 | 3.81 | -5 | 53 | 43 | 54 | 0.00 | -71 | 8 | 07/23/2025 05:15 AM |
| 47094 | 15.1 | 3.81 | -5 | 53 | 43 | 55 | 0.00 | -72 | 8 | 07/23/2025 05:00 AM |
| 47093 | 15.1 | 3.86 | -5 | 54 | 43 | 55 | 0.00 | -72 | 8 | 07/23/2025 04:45 AM |
| 47092 | 15.1 | 3.80 | -5 | 54 | 43 | 55 | 0.00 | -72 | 8 | 07/23/2025 04:30 AM |
| 47091 | 15.1 | 3.80 | -5 | 54 | 43 | 55 | 0.00 | -72 | 7 | 07/23/2025 04:15 AM |
| 47090 | 15.1 | 3.81 | -5 | 54 | 43 | 55 | 0.00 | -72 | 8 | 07/23/2025 04:00 AM |
| 47089 | 15.1 | 3.87 | -5 | 54 | 43 | 56 | 0.00 | -71 | 7 | 07/23/2025 03:45 AM |
| 47088 | 15.1 | 3.81 | -5 | 54 | 44 | 55 | 0.00 | -72 | 8 | 07/23/2025 03:30 AM |
| 47087 | 15.1 | 3.81 | -5 | 55 | 44 | 56 | 0.00 | -72 | 8 | 07/23/2025 03:15 AM |
| 47086 | 15.1 | 3.87 | -5 | 55 | 44 | 56 | 0.00 | -70 | 7 | 07/23/2025 03:00 AM |
| 47085 | 15.1 | 3.81 | -5 | 55 | 44 | 56 | 0.00 | -70 | 8 | 07/23/2025 02:45 AM |
| 47084 | 15.1 | 3.87 | -5 | 55 | 44 | 56 | 0.00 | -72 | 8 | 07/23/2025 02:30 AM |
| 47083 | 15.1 | 3.80 | -5 | 55 | 44 | 56 | 0.00 | -72 | 8 | 07/23/2025 02:15 AM |
| 47082 | 15.1 | 3.80 | -5 | 55 | 44 | 57 | 0.10 | -72 | 8 | 07/23/2025 02:00 AM |